Terminal Aerodrome Forecast
Issued by NWS Cleveland, OH

Home | Current Version | Previous Version | Text Only | Print | Product List | Glossary Off
Versions: 1 2 3 4 5 6 7 8 9 10 11 12 13 14 15

000
FTUS41 KCLE 191900 AAA
TAFMFD
TAF AMD
KMFD 191957Z 1920/2018 20005KT P6SM SCT015 OVC035
      TEMPO 1920/1922 6SM -SHRA OVC030
     FM200700 00000KT 4SM BR SCT004 BKN025
     FM200900 00000KT 1/2SM FG BKN002
     FM201400 18003KT 5SM BR BKN006
     FM201600 18004KT P6SM BKN020=

USA.gov is the U.S. government's official web portal to all federal, state and local government web resources and services.